Location: Bas Lanzent
(48.1360°N, 3.5871°W)
Time: 08:53:47
(UTC+00:00)

SJ-12 - Pass Details

Date: 18 February 2020
Orbit: 569 x 584 km, 97.7° (Epoch: 31 March)

Event Time Altitude Azimuth Distance (km) Brightness Sun altitude
Rises 05:57:48 0° 8° (N) 2,812 7.5 -13.8°
Reaches altitude 10° 06:00:00 10° 4° (N) 1,910 6.6 -13.5°
Maximum altitude 06:04:01 52° 288° (WNW) 729 4.0 -12.8°
Drops below altitude 10° 06:08:02 10° 212° (SSW) 1,901 6.3 -12.1°
Sets 06:10:13 0° 208° (SSW) 2,797 7.2 -11.8°
